TimeCDT,TemperatureF,Dew PointF,Humidity,Sea Level PressureIn,VisibilityMPH,Wind Direction,Wind SpeedMPH,Gust SpeedMPH,PrecipitationIn,Events,Conditions,WindDirDegrees,DateUTC
12:56 AM,60.1,59.0,96,29.77,-9999.0,South,9.2,-,N/A,,Unknown,170,2013-09-18 05:56:00
1:56 AM,60.1,59.0,96,29.75,-9999.0,Variable,6.9,-,N/A,,Unknown,0,2013-09-18 06:56:00
2:56 AM,60.1,60.1,100,29.73,-9999.0,South,8.1,-,0.01,,Unknown,170,2013-09-18 07:56:00
3:56 AM,60.1,60.1,100,29.71,-9999.0,SSE,4.6,-,N/A,,Unknown,160,2013-09-18 08:56:00
4:56 AM,60.1,60.1,100,29.69,-9999.0,SSE,6.9,-,0.01,,Unknown,160,2013-09-18 09:56:00
5:56 AM,60.1,60.1,100,29.68,-9999.0,South,5.8,-,N/A,,Unknown,170,2013-09-18 10:56:00
6:56 AM,61.0,61.0,100,29.69,-9999.0,Calm,Calm,-,0.01,,Unknown,0,2013-09-18 11:56:00
7:56 AM,61.0,61.0,100,29.68,-9999.0,SE,4.6,-,0.01,,Unknown,140,2013-09-18 12:56:00
8:56 AM,62.1,62.1,100,29.67,-9999.0,South,3.5,-,0.01,,Unknown,170,2013-09-18 13:56:00
9:56 AM,63.0,63.0,100,29.66,-9999.0,SE,3.5,-,N/A,,Unknown,130,2013-09-18 14:56:00
10:56 AM,64.9,64.9,100,29.65,-9999.0,SSE,3.5,-,N/A,,Unknown,160,2013-09-18 15:56:00
11:56 AM,68.0,68.0,100,29.62,-9999.0,South,5.8,-,N/A,,Unknown,170,2013-09-18 16:56:00
12:56 PM,73.0,69.1,87,29.59,-9999.0,South,11.5,16.1,N/A,,Unknown,170,2013-09-18 17:56:00
1:56 PM,82.0,70.0,67,29.54,-9999.0,South,12.7,19.6,N/A,,Unknown,170,2013-09-18 18:56:00
2:56 PM,87.1,69.1,55,29.52,-9999.0,South,11.5,20.7,N/A,,Unknown,170,2013-09-18 19:56:00
3:56 PM,89.1,68.0,50,29.51,-9999.0,South,11.5,20.7,N/A,,Unknown,170,2013-09-18 20:56:00
4:56 PM,91.0,68.0,47,29.49,-9999.0,SSW,12.7,20.7,N/A,,Unknown,210,2013-09-18 21:56:00
5:56 PM,89.1,66.9,48,29.49,-9999.0,South,11.5,20.7,N/A,,Unknown,190,2013-09-18 22:56:00
6:56 PM,82.9,68.0,60,29.49,-9999.0,South,6.9,-,N/A,,Unknown,170,2013-09-18 23:56:00
7:56 PM,79.0,68.0,69,29.52,-9999.0,South,4.6,-,N/A,,Unknown,180,2013-09-19 00:56:00
8:56 PM,78.1,68.0,71,29.55,-9999.0,SSE,4.6,-,N/A,,Unknown,160,2013-09-19 01:56:00
9:56 PM,77.0,69.1,76,29.52,-9999.0,Variable,3.5,-,N/A,,Unknown,0,2013-09-19 02:56:00
10:53 PM,87.8,46.4,24,29.57,-9999.0,West,13.8,33.4,N/A,,Unknown,260,2013-09-19 03:53:00
10:56 PM,87.1,48.0,26,29.52,-9999.0,West,11.5,24.2,N/A,,Unknown,280,2013-09-19 03:56:00
11:56 PM,78.1,51.1,39,29.57,-9999.0,WSW,11.5,36.8,0.07,,Unknown,240,2013-09-19 04:56:00